Time,TemperatureF,DewpointF,PressureIn,WindDirection,WindDirectionDegrees,WindSpeedMPH,WindSpeedGustMPH,Humidity,HourlyPrecipIn,Conditions,Clouds,dailyrainin,SoftwareType,DateUTC
2013-02-07 00:00:00,29.7,12.9,30.31,NW,307,5.0,14.0,49,0.00,,---,0.03,VWS V14.01,2013-02-07 05:00:00,
2013-02-07 00:05:00,29.6,13.3,30.31,NW,313,7.0,8.0,50,0.00,,---,0.00,VWS V14.01,2013-02-07 05:05:00,
2013-02-07 00:10:00,29.5,12.7,30.31,WNW,295,5.0,17.0,49,0.00,,---,0.00,VWS V14.01,2013-02-07 05:10:00,
2013-02-07 00:15:00,29.5,12.7,30.32,WNW,293,3.0,17.0,49,0.00,,---,0.00,VWS V14.01,2013-02-07 05:15:00,
2013-02-07 00:20:00,29.4,12.6,30.32,NW,319,9.0,17.0,49,0.00,,---,0.00,VWS V14.01,2013-02-07 05:20:00,
2013-02-07 00:25:00,29.4,12.6,30.33,NW,313,5.0,17.0,49,0.00,,---,0.00,VWS V14.01,2013-02-07 05:25:00,
2013-02-07 00:30:00,29.4,12.6,30.32,NW,320,8.0,17.0,49,0.00,,---,0.00,VWS V14.01,2013-02-07 05:30:00,
2013-02-07 00:35:00,29.3,12.1,30.32,WNW,302,8.0,12.0,48,0.00,,---,0.00,VWS V14.01,2013-02-07 05:35:00,
2013-02-07 00:40:00,29.3,12.1,30.32,NW,309,6.0,15.0,48,0.00,,---,0.00,VWS V14.01,2013-02-07 05:40:00,
2013-02-07 00:45:00,29.2,12.0,30.32,WNW,283,9.0,15.0,48,0.00,,---,0.00,VWS V14.01,2013-02-07 05:45:00,
2013-02-07 00:50:00,29.2,12.0,30.32,NNW,328,7.0,15.0,48,0.00,,---,0.00,VWS V14.01,2013-02-07 05:50:00,
2013-02-07 00:55:00,29.1,11.9,30.31,NW,311,8.0,15.0,48,0.00,,---,0.00,VWS V14.01,2013-02-07 05:55:00,
2013-02-07 01:00:00,29.0,11.3,30.32,WSW,250,4.0,15.0,47,0.00,,---,0.00,VWS V14.01,2013-02-07 06:00:00,
2013-02-07 01:05:00,28.9,11.2,30.32,NNW,330,6.0,14.0,47,0.00,,---,0.00,VWS V14.01,2013-02-07 06:05:00,
2013-02-07 01:10:00,28.8,12.1,30.32,NW,314,11.0,14.0,49,0.00,,---,0.00,VWS V14.01,2013-02-07 06:10:00,
2013-02-07 01:15:00,28.7,12.0,30.32,NNW,330,0.0,14.0,49,0.00,,---,0.00,VWS V14.01,2013-02-07 06:15:00,
2013-02-07 01:20:00,28.6,11.9,30.32,West,275,9.0,14.0,49,0.00,,---,0.00,VWS V14.01,2013-02-07 06:20:00,
2013-02-07 01:25:00,28.5,11.3,30.33,NW,314,7.0,14.0,48,0.00,,---,0.00,VWS V14.01,2013-02-07 06:25:00,
2013-02-07 01:30:00,28.4,11.2,30.33,NW,311,0.0,14.0,48,0.00,,---,0.00,VWS V14.01,2013-02-07 06:30:00,
2013-02-07 01:35:00,28.3,11.1,30.33,WNW,292,11.0,12.0,48,0.00,,---,0.00,VWS V14.01,2013-02-07 06:35:00,
2013-02-07 01:40:00,28.2,11.5,30.33,NW,305,1.0,12.0,49,0.00,,---,0.00,VWS V14.01,2013-02-07 06:40:00,
2013-02-07 01:45:00,28.1,11.4,30.33,NW,316,3.0,13.0,49,0.00,,---,0.00,VWS V14.01,2013-02-07 06:45:00,
2013-02-07 01:50:00,28.0,10.9,30.33,NW,313,12.0,15.0,48,0.00,,---,0.00,VWS V14.01,2013-02-07 06:50:00,
2013-02-07 01:55:00,28.0,10.9,30.34,NNW,332,8.0,15.0,48,0.00,,---,0.00,VWS V14.01,2013-02-07 06:55:00,
2013-02-07 02:00:00,28.0,11.3,30.34,NW,312,3.0,15.0,49,0.00,,---,0.00,VWS V14.01,2013-02-07 07:00:00,
2013-02-07 02:05:00,27.9,11.2,30.34,NW,319,7.0,9.0,49,0.00,,---,0.00,VWS V14.01,2013-02-07 07:05:00,
2013-02-07 02:10:00,27.8,11.6,30.34,NW,323,6.0,9.0,50,0.00,,---,0.00,VWS V14.01,2013-02-07 07:10:00,
2013-02-07 02:15:00,27.8,11.6,30.34,NNW,331,4.0,9.0,50,0.00,,---,0.00,VWS V14.01,2013-02-07 07:15:00,
2013-02-07 02:20:00,28.0,11.3,30.34,NW,313,2.0,11.0,49,0.00,,---,0.00,VWS V14.01,2013-02-07 07:20:00,
2013-02-07 02:25:00,28.0,11.3,30.34,WNW,301,0.0,11.0,49,0.00,,---,0.00,VWS V14.01,2013-02-07 07:25:00,
2013-02-07 02:30:00,28.0,11.3,30.34,WNW,300,4.0,11.0,49,0.00,,---,0.00,VWS V14.01,2013-02-07 07:30:00,
2013-02-07 02:35:00,27.9,11.2,30.34,NW,319,7.0,11.0,49,0.00,,---,0.00,VWS V14.01,2013-02-07 07:35:00,
2013-02-07 02:40:00,27.9,11.7,30.35,West,278,2.0,11.0,50,0.00,,---,0.00,VWS V14.01,2013-02-07 07:40:00,
2013-02-07 02:45:00,27.7,11.5,30.36,NNW,346,8.0,11.0,50,0.00,,---,0.00,VWS V14.01,2013-02-07 07:45:00,
2013-02-07 02:50:00,27.5,11.3,30.36,NW,305,4.0,11.0,50,0.00,,---,0.00,VWS V14.01,2013-02-07 07:50:00,
2013-02-07 02:55:00,27.4,11.7,30.36,NW,306,6.0,11.0,51,0.00,,---,0.00,VWS V14.01,2013-02-07 07:55:00,
2013-02-07 03:00:00,27.3,11.6,30.38,WSW,242,4.0,11.0,51,0.00,,---,0.00,VWS V14.01,2013-02-07 08:00:00,
2013-02-07 03:05:00,27.2,11.9,30.38,WNW,285,2.0,10.0,52,0.00,,---,0.00,VWS V14.01,2013-02-07 08:05:00,
2013-02-07 03:10:00,27.1,12.2,30.37,WNW,303,6.0,10.0,53,0.00,,---,0.00,VWS V14.01,2013-02-07 08:10:00,
2013-02-07 03:15:00,27.0,12.2,30.38,WNW,294,4.0,10.0,53,0.00,,---,0.00,VWS V14.01,2013-02-07 08:15:00,
2013-02-07 03:20:00,26.9,12.1,30.38,NW,311,5.0,10.0,53,0.00,,---,0.00,VWS V14.01,2013-02-07 08:20:00,
2013-02-07 03:25:00,26.9,12.1,30.38,WNW,290,0.0,10.0,53,0.00,,---,0.00,VWS V14.01,2013-02-07 08:25:00,
2013-02-07 03:30:00,26.8,12.4,30.37,NW,315,3.0,10.0,54,0.00,,---,0.00,VWS V14.01,2013-02-07 08:30:00,
2013-02-07 03:35:00,26.7,12.3,30.38,NW,307,3.0,7.0,54,0.00,,---,0.00,VWS V14.01,2013-02-07 08:35:00,
2013-02-07 03:40:00,26.6,11.8,30.38,NW,315,6.0,10.0,53,0.00,,---,0.00,VWS V14.01,2013-02-07 08:40:00,
2013-02-07 03:45:00,26.6,11.8,30.38,NW,305,6.0,10.0,53,0.00,,---,0.00,VWS V14.01,2013-02-07 08:45:00,
2013-02-07 03:50:00,26.5,12.1,30.38,WNW,303,0.0,10.0,54,0.00,,---,0.00,VWS V14.01,2013-02-07 08:50:00,
2013-02-07 03:55:00,26.4,12.4,30.38,NW,321,6.0,10.0,55,0.00,,---,0.00,VWS V14.01,2013-02-07 08:55:00,
2013-02-07 04:00:00,26.3,11.9,30.38,NW,323,8.0,11.0,54,0.00,,---,0.00,VWS V14.01,2013-02-07 09:00:00,
2013-02-07 04:05:00,26.2,11.8,30.39,NW,313,6.0,11.0,54,0.00,,---,0.00,VWS V14.01,2013-02-07 09:05:00,
2013-02-07 04:10:00,26.2,12.2,30.39,NNW,336,4.0,11.0,55,0.00,,---,0.00,VWS V14.01,2013-02-07 09:10:00,
2013-02-07 04:15:00,26.1,12.2,30.39,NW,322,3.0,11.0,55,0.00,,---,0.00,VWS V14.01,2013-02-07 09:15:00,
2013-02-07 04:20:00,26.0,12.5,30.38,NNW,337,6.0,12.0,56,0.00,,---,0.00,VWS V14.01,2013-02-07 09:20:00,
2013-02-07 04:25:00,26.0,12.5,30.39,NW,322,4.0,15.0,56,0.00,,---,0.00,VWS V14.01,2013-02-07 09:25:00,
2013-02-07 04:30:00,25.9,12.8,30.39,NNW,329,8.0,15.0,57,0.00,,---,0.00,VWS V14.01,2013-02-07 09:30:00,
2013-02-07 04:35:00,25.8,12.7,30.39,NW,324,3.0,12.0,57,0.00,,---,0.00,VWS V14.01,2013-02-07 09:35:00,
2013-02-07 04:40:00,25.8,12.7,30.39,NNW,331,4.0,12.0,57,0.00,,---,0.00,VWS V14.01,2013-02-07 09:40:00,
2013-02-07 04:45:00,25.6,12.9,30.39,NNW,339,4.0,12.0,58,0.00,,---,0.00,VWS V14.01,2013-02-07 09:45:00,
2013-02-07 04:50:00,25.5,12.4,30.39,NW,309,6.0,12.0,57,0.00,,---,0.00,VWS V14.01,2013-02-07 09:50:00,
2013-02-07 04:55:00,25.4,12.3,30.40,NW,322,5.0,12.0,57,0.00,,---,0.00,VWS V14.01,2013-02-07 09:55:00,
2013-02-07 05:00:00,25.4,11.9,30.41,North,352,4.0,12.0,56,0.00,,---,0.00,VWS V14.01,2013-02-07 10:00:00,
2013-02-07 05:05:00,25.2,11.7,30.41,NW,305,5.0,8.0,56,0.00,,---,0.00,VWS V14.01,2013-02-07 10:05:00,
2013-02-07 05:10:00,25.1,11.6,30.40,NW,319,0.0,8.0,56,0.00,,---,0.00,VWS V14.01,2013-02-07 10:10:00,
2013-02-07 05:15:00,25.0,11.9,30.41,NW,313,8.0,10.0,57,0.00,,---,0.00,VWS V14.01,2013-02-07 10:15:00,
2013-02-07 05:20:00,24.9,11.8,30.41,NW,309,7.0,10.0,57,0.00,,---,0.00,VWS V14.01,2013-02-07 10:20:00,
2013-02-07 05:25:00,24.8,11.7,30.42,WNW,290,1.0,10.0,57,0.00,,---,0.00,VWS V14.01,2013-02-07 10:25:00,
2013-02-07 05:30:00,24.8,11.7,30.42,NW,312,8.0,10.0,57,0.00,,---,0.00,VWS V14.01,2013-02-07 10:30:00,
2013-02-07 05:35:00,24.7,11.6,30.42,NW,309,4.0,11.0,57,0.00,,---,0.00,VWS V14.01,2013-02-07 10:35:00,
2013-02-07 05:40:00,24.7,11.6,30.42,NW,307,6.0,11.0,57,0.00,,---,0.00,VWS V14.01,2013-02-07 10:40:00,
2013-02-07 05:45:00,24.6,12.3,30.42,NNW,340,5.0,11.0,59,0.00,,---,0.00,VWS V14.01,2013-02-07 10:45:00,
2013-02-07 05:50:00,24.6,12.3,30.42,NW,323,9.0,11.0,59,0.00,,---,0.00,VWS V14.01,2013-02-07 10:50:00,
2013-02-07 05:55:00,24.5,12.2,30.42,NNW,330,0.0,11.0,59,0.00,,---,0.00,VWS V14.01,2013-02-07 10:55:00,
2013-02-07 06:00:00,24.5,12.2,30.43,NNW,337,5.0,11.0,59,0.00,,---,0.00,VWS V14.01,2013-02-07 11:00:00,
2013-02-07 06:05:00,24.5,12.2,30.43,NW,325,4.0,6.0,59,0.00,,---,0.00,VWS V14.01,2013-02-07 11:05:00,
2013-02-07 06:10:00,24.4,12.5,30.43,NNW,327,2.0,7.0,60,0.00,,---,0.00,VWS V14.01,2013-02-07 11:10:00,
2013-02-07 06:15:00,24.3,12.1,30.43,NNW,335,3.0,8.0,59,0.00,,---,0.00,VWS V14.01,2013-02-07 11:15:00,
2013-02-07 06:20:00,24.3,12.4,30.44,NW,320,3.0,8.0,60,0.00,,---,0.00,VWS V14.01,2013-02-07 11:20:00,
2013-02-07 06:25:00,24.3,12.4,30.44,NW,313,4.0,8.0,60,0.00,,---,0.00,VWS V14.01,2013-02-07 11:25:00,
2013-02-07 06:30:00,24.2,12.3,30.44,NW,323,0.0,8.0,60,0.00,,---,0.00,VWS V14.01,2013-02-07 11:30:00,
2013-02-07 06:35:00,24.1,12.2,30.45,NNW,338,3.0,6.0,60,0.00,,---,0.00,VWS V14.01,2013-02-07 11:35:00,
2013-02-07 06:40:00,24.0,12.1,30.45,NW,305,4.0,8.0,60,0.00,,---,0.00,VWS V14.01,2013-02-07 11:40:00,
2013-02-07 06:45:00,24.0,12.5,30.45,NW,326,0.0,8.0,61,0.00,,---,0.00,VWS V14.01,2013-02-07 11:45:00,
2013-02-07 06:50:00,23.9,12.1,30.45,NNW,344,4.0,8.0,60,0.00,,---,0.00,VWS V14.01,2013-02-07 11:50:00,
2013-02-07 06:55:00,23.9,12.4,30.45,NW,321,2.0,8.0,61,0.00,,---,0.00,VWS V14.01,2013-02-07 11:55:00,
2013-02-07 07:00:00,23.8,12.3,30.44,NNW,339,1.0,8.0,61,0.00,,---,0.00,VWS V14.01,2013-02-07 12:00:00,
2013-02-07 07:05:00,23.8,12.7,30.45,NW,313,9.0,9.0,62,0.00,,---,0.00,VWS V14.01,2013-02-07 12:05:00,
2013-02-07 07:10:00,23.9,12.4,30.46,NW,314,4.0,9.0,61,0.00,,---,0.00,VWS V14.01,2013-02-07 12:10:00,
2013-02-07 07:15:00,24.0,12.5,30.46,NNW,332,4.0,9.0,61,0.00,,---,0.00,VWS V14.01,2013-02-07 12:15:00,
2013-02-07 07:20:00,24.0,12.5,30.47,NNW,332,4.0,10.0,61,0.00,,---,0.00,VWS V14.01,2013-02-07 12:20:00,
2013-02-07 07:25:00,24.1,13.0,30.47,WNW,303,3.0,10.0,62,0.00,,---,0.00,VWS V14.01,2013-02-07 12:25:00,
2013-02-07 07:30:00,24.2,13.1,30.47,NNW,329,1.0,10.0,62,0.00,,---,0.00,VWS V14.01,2013-02-07 12:30:00,
2013-02-07 07:35:00,24.2,13.1,30.48,NW,318,3.0,7.0,62,0.00,,---,0.00,VWS V14.01,2013-02-07 12:35:00,
2013-02-07 07:40:00,24.2,12.7,30.48,NW,313,6.0,7.0,61,0.00,,---,0.00,VWS V14.01,2013-02-07 12:40:00,
2013-02-07 07:45:00,24.2,12.7,30.49,North,350,0.0,7.0,61,0.00,,---,0.00,VWS V14.01,2013-02-07 12:45:00,
2013-02-07 07:50:00,24.3,12.8,30.49,NW,321,4.0,10.0,61,0.00,,---,0.00,VWS V14.01,2013-02-07 12:50:00,
2013-02-07 07:55:00,24.4,12.9,30.49,NW,315,2.0,10.0,61,0.00,,---,0.00,VWS V14.01,2013-02-07 12:55:00,
2013-02-07 08:00:00,24.4,12.9,30.49,NNW,347,6.0,11.0,61,0.00,,---,0.00,VWS V14.01,2013-02-07 13:00:00,
2013-02-07 08:05:00,24.4,12.9,30.50,NW,313,6.0,10.0,61,0.00,,---,0.00,VWS V14.01,2013-02-07 13:05:00,
2013-02-07 08:10:00,24.4,12.5,30.50,NNW,330,4.0,10.0,60,0.00,,---,0.00,VWS V14.01,2013-02-07 13:10:00,
2013-02-07 08:15:00,24.4,12.9,30.50,NW,323,6.0,10.0,61,0.00,,---,0.00,VWS V14.01,2013-02-07 13:15:00,
2013-02-07 08:20:00,24.4,12.9,30.50,NW,313,3.0,10.0,61,0.00,,---,0.00,VWS V14.01,2013-02-07 13:20:00,
2013-02-07 08:25:00,24.3,12.8,30.50,NNW,335,8.0,11.0,61,0.00,,---,0.00,VWS V14.01,2013-02-07 13:25:00,
2013-02-07 08:30:00,24.3,12.8,30.50,NW,317,4.0,11.0,61,0.00,,---,0.00,VWS V14.01,2013-02-07 13:30:00,
2013-02-07 08:35:00,24.3,13.2,30.50,NW,326,9.0,13.0,62,0.00,,---,0.00,VWS V14.01,2013-02-07 13:35:00,
2013-02-07 08:40:00,24.4,12.5,30.50,North,356,7.0,13.0,60,0.00,,---,0.00,VWS V14.01,2013-02-07 13:40:00,
2013-02-07 08:45:00,24.6,12.3,30.51,North,353,7.0,13.0,59,0.00,,---,0.00,VWS V14.01,2013-02-07 13:45:00,
2013-02-07 08:50:00,24.7,12.0,30.51,NW,321,6.0,13.0,58,0.00,,---,0.00,VWS V14.01,2013-02-07 13:50:00,
2013-02-07 08:55:00,24.8,12.5,30.51,North,353,5.0,13.0,59,0.00,,---,0.00,VWS V14.01,2013-02-07 13:55:00,
2013-02-07 09:00:00,25.0,12.3,30.51,NNW,336,7.0,13.0,58,0.00,,---,0.00,VWS V14.01,2013-02-07 14:00:00,
2013-02-07 09:05:00,25.1,12.4,30.51,NNE,19,3.0,11.0,58,0.00,,---,0.00,VWS V14.01,2013-02-07 14:05:00,
2013-02-07 09:10:00,25.3,14.1,30.51,NNW,328,5.0,11.0,62,0.00,,---,0.00,VWS V14.01,2013-02-07 14:10:00,
2013-02-07 09:15:00,25.4,12.3,30.51,North,352,6.0,11.0,57,0.00,,---,0.00,VWS V14.01,2013-02-07 14:15:00,
2013-02-07 09:20:00,25.5,12.4,30.51,NNW,341,6.0,11.0,57,0.00,,---,0.00,VWS V14.01,2013-02-07 14:20:00,
2013-02-07 09:25:00,25.6,12.5,30.51,NW,325,2.0,11.0,57,0.00,,---,0.00,VWS V14.01,2013-02-07 14:25:00,
2013-02-07 09:30:00,25.8,12.7,30.51,NNW,343,6.0,11.0,57,0.00,,---,0.00,VWS V14.01,2013-02-07 14:30:00,
2013-02-07 09:35:00,26.1,12.2,30.52,NW,321,5.0,9.0,55,0.00,,---,0.00,VWS V14.01,2013-02-07 14:35:00,
2013-02-07 09:40:00,26.2,11.4,30.52,NNW,336,4.0,9.0,53,0.00,,---,0.00,VWS V14.01,2013-02-07 14:40:00,
2013-02-07 09:45:00,26.4,12.0,30.52,NNW,335,0.0,9.0,54,0.00,,---,0.00,VWS V14.01,2013-02-07 14:45:00,
2013-02-07 09:50:00,26.6,12.2,30.52,NNW,328,5.0,9.0,54,0.00,,---,0.00,VWS V14.01,2013-02-07 14:50:00,
2013-02-07 09:55:00,26.9,11.6,30.52,North,5,4.0,12.0,52,0.00,,---,0.00,VWS V14.01,2013-02-07 14:55:00,
2013-02-07 10:00:00,27.2,12.8,30.53,WNW,292,7.0,12.0,54,0.00,,---,0.00,VWS V14.01,2013-02-07 15:00:00,
2013-02-07 10:05:00,27.4,11.7,30.53,NNW,335,7.0,13.0,51,0.00,,---,0.00,VWS V14.01,2013-02-07 15:05:00,
2013-02-07 10:10:00,27.5,11.8,30.54,North,3,3.0,13.0,51,0.00,,---,0.00,VWS V14.01,2013-02-07 15:10:00,
2013-02-07 10:15:00,27.6,11.4,30.54,North,356,12.0,13.0,50,0.00,,---,0.00,VWS V14.01,2013-02-07 15:15:00,
2013-02-07 10:20:00,27.7,11.0,30.54,NNW,342,4.0,13.0,49,0.00,,---,0.00,VWS V14.01,2013-02-07 15:20:00,
2013-02-07 10:25:00,27.8,10.7,30.54,North,351,2.0,13.0,48,0.00,,---,0.00,VWS V14.01,2013-02-07 15:25:00,
2013-02-07 10:30:00,27.7,10.1,30.54,NW,305,7.0,13.0,47,0.00,,---,0.00,VWS V14.01,2013-02-07 15:30:00,
2013-02-07 10:35:00,27.6,10.0,30.55,NNW,344,12.0,16.0,47,0.00,,---,0.00,VWS V14.01,2013-02-07 15:35:00,
2013-02-07 10:40:00,27.7,10.1,30.55,North,357,8.0,16.0,47,0.00,,---,0.00,VWS V14.01,2013-02-07 15:40:00,
2013-02-07 10:45:00,27.8,10.2,30.54,North,11,4.0,16.0,47,0.00,,---,0.00,VWS V14.01,2013-02-07 15:45:00,
2013-02-07 10:50:00,28.0,10.4,30.54,North,353,10.0,16.0,47,0.00,,---,0.00,VWS V14.01,2013-02-07 15:50:00,
2013-02-07 10:55:00,28.1,10.5,30.53,North,352,5.0,16.0,47,0.00,,---,0.00,VWS V14.01,2013-02-07 15:55:00,
2013-02-07 11:00:00,28.3,10.7,30.53,NW,319,7.0,16.0,47,0.00,,---,0.00,VWS V14.01,2013-02-07 16:00:00,
2013-02-07 11:05:00,28.4,10.8,30.53,NE,34,3.0,12.0,47,0.00,,---,0.00,VWS V14.01,2013-02-07 16:05:00,
2013-02-07 11:10:00,28.5,9.9,30.53,NNW,344,9.0,16.0,45,0.00,,---,0.00,VWS V14.01,2013-02-07 16:10:00,
2013-02-07 11:15:00,28.6,10.0,30.53,NW,326,5.0,16.0,45,0.00,,---,0.00,VWS V14.01,2013-02-07 16:15:00,
2013-02-07 11:20:00,28.8,10.1,30.53,NW,319,6.0,16.0,45,0.00,,---,0.00,VWS V14.01,2013-02-07 16:20:00,
2013-02-07 11:25:00,28.8,10.6,30.53,NW,315,8.0,16.0,46,0.00,,---,0.00,VWS V14.01,2013-02-07 16:25:00,
2013-02-07 11:30:00,28.8,9.6,30.53,NW,315,12.0,16.0,44,0.00,,---,0.00,VWS V14.01,2013-02-07 16:30:00,
2013-02-07 11:35:00,29.1,9.9,30.53,NNW,333,11.0,13.0,44,0.00,,---,0.00,VWS V14.01,2013-02-07 16:35:00,
2013-02-07 11:40:00,29.4,10.7,30.52,WNW,298,10.0,13.0,45,0.00,,---,0.00,VWS V14.01,2013-02-07 16:40:00,
2013-02-07 11:45:00,29.5,10.3,30.52,WNW,296,7.0,13.0,44,0.00,,---,0.00,VWS V14.01,2013-02-07 16:45:00,
2013-02-07 11:50:00,29.5,10.3,30.52,NW,307,6.0,13.0,44,0.00,,---,0.00,VWS V14.01,2013-02-07 16:50:00,
2013-02-07 11:55:00,29.7,10.5,30.52,NNW,336,9.0,13.0,44,0.00,,---,0.00,VWS V14.01,2013-02-07 16:55:00,
2013-02-07 12:00:00,29.6,10.4,30.51,NNW,338,6.0,13.0,44,0.00,,---,0.00,VWS V14.01,2013-02-07 17:00:00,
2013-02-07 12:05:00,29.7,11.5,30.51,NW,316,2.0,7.0,46,0.00,,---,0.00,VWS V14.01,2013-02-07 17:05:00,
2013-02-07 12:10:00,30.1,11.3,30.51,NW,310,0.0,8.0,45,0.00,,---,0.00,VWS V14.01,2013-02-07 17:10:00,
2013-02-07 12:15:00,30.2,11.4,30.51,NNE,26,9.0,9.0,45,0.00,,---,0.00,VWS V14.01,2013-02-07 17:15:00,
2013-02-07 12:20:00,30.1,11.3,30.51,North,7,0.0,10.0,45,0.00,,---,0.00,VWS V14.01,2013-02-07 17:20:00,
2013-02-07 12:25:00,30.3,12.5,30.51,North,351,2.0,10.0,47,0.00,,---,0.00,VWS V14.01,2013-02-07 17:25:00,
2013-02-07 12:30:00,30.3,11.0,30.51,NNE,22,8.0,10.0,44,0.00,,---,0.00,VWS V14.01,2013-02-07 17:30:00,
2013-02-07 12:35:00,30.3,10.5,30.50,NNE,33,2.0,10.0,43,0.00,,---,0.00,VWS V14.01,2013-02-07 17:35:00,
2013-02-07 12:40:00,30.4,11.6,30.50,NNW,346,5.0,10.0,45,0.00,,---,0.00,VWS V14.01,2013-02-07 17:40:00,
2013-02-07 12:45:00,30.3,10.0,30.50,NNE,24,2.0,10.0,42,0.00,,---,0.00,VWS V14.01,2013-02-07 17:45:00,
2013-02-07 12:50:00,30.4,11.1,30.50,NNW,345,7.0,10.0,44,0.00,,---,0.00,VWS V14.01,2013-02-07 17:50:00,
2013-02-07 12:55:00,30.5,10.7,30.50,NNW,348,3.0,10.0,43,0.00,,---,0.00,VWS V14.01,2013-02-07 17:55:00,
2013-02-07 13:00:00,30.6,9.7,30.50,NNW,340,8.0,10.0,41,0.00,,---,0.00,VWS V14.01,2013-02-07 18:00:00,
2013-02-07 13:05:00,30.7,10.9,30.50,North,359,5.0,8.0,43,0.00,,---,0.00,VWS V14.01,2013-02-07 18:05:00,
2013-02-07 13:10:00,30.8,9.9,30.50,NNW,346,0.0,8.0,41,0.00,,---,0.00,VWS V14.01,2013-02-07 18:10:00,
2013-02-07 13:15:00,31.0,11.1,30.49,North,11,7.0,8.0,43,0.00,,---,0.00,VWS V14.01,2013-02-07 18:15:00,
2013-02-07 13:20:00,31.1,10.7,30.49,NNW,345,7.0,9.0,42,0.00,,---,0.00,VWS V14.01,2013-02-07 18:20:00,
2013-02-07 13:25:00,31.3,10.9,30.49,North,7,0.0,9.0,42,0.00,,---,0.00,VWS V14.01,2013-02-07 18:25:00,
2013-02-07 13:30:00,31.4,10.4,30.48,North,5,9.0,10.0,41,0.00,,---,0.00,VWS V14.01,2013-02-07 18:30:00,
2013-02-07 13:35:00,31.6,10.6,30.49,NNE,27,2.0,9.0,41,0.00,,---,0.00,VWS V14.01,2013-02-07 18:35:00,
2013-02-07 13:40:00,31.5,11.6,30.48,North,359,0.0,9.0,43,0.00,,---,0.00,VWS V14.01,2013-02-07 18:40:00,
2013-02-07 13:45:00,31.5,12.6,30.48,ENE,65,5.0,9.0,45,0.00,,---,0.00,VWS V14.01,2013-02-07 18:45:00,
2013-02-07 13:50:00,31.4,12.0,30.49,NE,36,3.0,9.0,44,0.00,,---,0.00,VWS V14.01,2013-02-07 18:50:00,
2013-02-07 13:55:00,31.4,11.0,30.48,NE,52,0.0,9.0,42,0.00,,---,0.00,VWS V14.01,2013-02-07 18:55:00,
2013-02-07 14:00:00,31.7,11.8,30.48,NE,45,3.0,9.0,43,0.00,,---,0.00,VWS V14.01,2013-02-07 19:00:00,
2013-02-07 14:05:00,31.6,11.2,30.48,ENE,59,4.0,11.0,42,0.00,,---,0.00,VWS V14.01,2013-02-07 19:05:00,
2013-02-07 14:10:00,31.8,10.8,30.48,NNE,27,3.0,11.0,41,0.00,,---,0.00,VWS V14.01,2013-02-07 19:10:00,
2013-02-07 14:15:00,31.7,10.7,30.49,NE,38,5.0,11.0,41,0.00,,---,0.00,VWS V14.01,2013-02-07 19:15:00,
2013-02-07 14:20:00,31.6,10.6,30.48,NNE,20,7.0,11.0,41,0.00,,---,0.00,VWS V14.01,2013-02-07 19:20:00,
2013-02-07 14:25:00,31.7,11.2,30.49,North,10,6.0,11.0,42,0.00,,---,0.00,VWS V14.01,2013-02-07 19:25:00,
2013-02-07 14:30:00,31.9,11.4,30.49,North,357,0.0,11.0,42,0.00,,---,0.00,VWS V14.01,2013-02-07 19:30:00,
2013-02-07 14:35:00,32.1,10.5,30.49,NNE,28,3.0,7.0,40,0.00,,---,0.00,VWS V14.01,2013-02-07 19:35:00,
2013-02-07 14:40:00,31.9,10.3,30.49,NE,35,4.0,8.0,40,0.00,,---,0.00,VWS V14.01,2013-02-07 19:40:00,
2013-02-07 14:45:00,31.8,10.2,30.48,NE,52,3.0,8.0,40,0.00,,---,0.00,VWS V14.01,2013-02-07 19:45:00,
2013-02-07 14:50:00,31.7,10.1,30.49,NNE,32,6.0,8.0,40,0.00,,---,0.00,VWS V14.01,2013-02-07 19:50:00,
2013-02-07 14:55:00,31.3,10.3,30.49,ENE,63,0.0,8.0,41,0.00,,---,0.00,VWS V14.01,2013-02-07 19:55:00,
2013-02-07 15:00:00,31.2,10.2,30.49,ENE,63,0.0,8.0,41,0.00,,---,0.00,VWS V14.01,2013-02-07 20:00:00,
2013-02-07 15:05:00,31.1,10.7,30.49,NE,37,2.0,4.0,42,0.00,,---,0.00,VWS V14.01,2013-02-07 20:05:00,
2013-02-07 15:10:00,31.1,11.2,30.49,ENE,63,0.0,4.0,43,0.00,,---,0.00,VWS V14.01,2013-02-07 20:10:00,
2013-02-07 15:15:00,31.1,9.6,30.49,NE,44,3.0,6.0,40,0.00,,---,0.00,VWS V14.01,2013-02-07 20:15:00,
2013-02-07 15:20:00,31.1,10.2,30.49,North,9,3.0,6.0,41,0.00,,---,0.00,VWS V14.01,2013-02-07 20:20:00,
2013-02-07 15:25:00,31.1,10.2,30.48,NE,42,4.0,7.0,41,0.00,,---,0.00,VWS V14.01,2013-02-07 20:25:00,
2013-02-07 15:30:00,31.2,11.3,30.48,NNE,32,0.0,7.0,43,0.00,,---,0.00,VWS V14.01,2013-02-07 20:30:00,
2013-02-07 15:35:00,31.2,11.3,30.48,NE,52,0.0,5.0,43,0.00,,---,0.00,VWS V14.01,2013-02-07 20:35:00,
2013-02-07 15:40:00,31.2,12.4,30.49,ENE,67,5.0,6.0,45,0.00,,---,0.00,VWS V14.01,2013-02-07 20:40:00,
2013-02-07 15:45:00,31.2,11.8,30.49,ENE,70,4.0,6.0,44,0.00,,---,0.00,VWS V14.01,2013-02-07 20:45:00,
2013-02-07 15:50:00,31.1,12.2,30.49,ENE,61,0.0,6.0,45,0.00,,---,0.00,VWS V14.01,2013-02-07 20:50:00,
2013-02-07 15:55:00,31.1,11.8,30.49,East,89,5.0,6.0,44,0.00,,---,0.00,VWS V14.01,2013-02-07 20:55:00,
2013-02-07 16:00:00,31.1,12.2,30.49,NE,37,6.0,7.0,45,0.00,,---,0.00,VWS V14.01,2013-02-07 21:00:00,
2013-02-07 16:05:00,31.1,12.8,30.49,NE,49,6.0,8.0,46,0.00,,---,0.00,VWS V14.01,2013-02-07 21:05:00,
2013-02-07 16:10:00,31.0,13.1,30.49,NE,51,3.0,9.0,47,0.00,,---,0.00,VWS V14.01,2013-02-07 21:10:00,
2013-02-07 16:15:00,30.7,13.4,30.48,NE,47,4.0,10.0,48,0.00,,---,0.00,VWS V14.01,2013-02-07 21:15:00,
2013-02-07 16:20:00,30.6,13.7,30.49,NE,42,5.0,10.0,49,0.00,,---,0.00,VWS V14.01,2013-02-07 21:20:00,
2013-02-07 16:25:00,30.4,14.4,30.48,NNE,30,0.0,10.0,51,0.00,,---,0.00,VWS V14.01,2013-02-07 21:25:00,
2013-02-07 16:30:00,30.4,15.3,30.48,NE,45,0.0,10.0,53,0.00,,---,0.00,VWS V14.01,2013-02-07 21:30:00,
2013-02-07 16:35:00,30.3,15.2,30.49,East,81,6.0,10.0,53,0.00,,---,0.00,VWS V14.01,2013-02-07 21:35:00,
2013-02-07 16:40:00,30.0,14.5,30.49,NE,45,3.0,10.0,52,0.00,,---,0.00,VWS V14.01,2013-02-07 21:40:00,
2013-02-07 16:45:00,29.8,14.8,30.49,NNE,28,0.0,10.0,53,0.00,,---,0.00,VWS V14.01,2013-02-07 21:45:00,
2013-02-07 16:50:00,29.6,15.0,30.49,East,94,4.0,10.0,54,0.00,,---,0.00,VWS V14.01,2013-02-07 21:50:00,
2013-02-07 16:55:00,29.4,14.8,30.49,NE,53,7.0,10.0,54,0.00,,---,0.00,VWS V14.01,2013-02-07 21:55:00,
2013-02-07 17:00:00,29.3,14.7,30.50,ENE,70,0.0,10.0,54,0.00,,---,0.00,VWS V14.01,2013-02-07 22:00:00,
2013-02-07 17:05:00,29.1,15.0,30.50,NE,55,7.0,12.0,55,0.00,,---,0.00,VWS V14.01,2013-02-07 22:05:00,
2013-02-07 17:10:00,29.0,14.4,30.50,NNE,13,0.0,12.0,54,0.00,,---,0.00,VWS V14.01,2013-02-07 22:10:00,
2013-02-07 17:15:00,28.9,14.4,30.50,NE,43,3.0,12.0,54,0.00,,---,0.00,VWS V14.01,2013-02-07 22:15:00,
2013-02-07 17:20:00,28.8,14.7,30.51,NE,47,0.0,12.0,55,0.00,,---,0.00,VWS V14.01,2013-02-07 22:20:00,
2013-02-07 17:25:00,28.8,14.3,30.50,NE,38,3.0,12.0,54,0.00,,---,0.00,VWS V14.01,2013-02-07 22:25:00,
2013-02-07 17:30:00,28.7,14.2,30.51,NE,51,1.0,12.0,54,0.00,,---,0.00,VWS V14.01,2013-02-07 22:30:00,
2013-02-07 17:35:00,28.6,13.6,30.51,NNE,29,6.0,13.0,53,0.00,,---,0.00,VWS V14.01,2013-02-07 22:35:00,
2013-02-07 17:40:00,28.6,14.1,30.51,NE,41,6.0,13.0,54,0.00,,---,0.00,VWS V14.01,2013-02-07 22:40:00,
2013-02-07 17:45:00,28.5,14.4,30.50,North,11,5.0,13.0,55,0.00,,---,0.00,VWS V14.01,2013-02-07 22:45:00,
2013-02-07 17:50:00,28.4,13.9,30.50,NE,34,7.0,13.0,54,0.00,,---,0.00,VWS V14.01,2013-02-07 22:50:00,
2013-02-07 17:55:00,28.3,14.6,30.51,NE,49,9.0,13.0,56,0.00,,---,0.00,VWS V14.01,2013-02-07 22:55:00,
2013-02-07 18:00:00,28.1,14.4,30.51,North,9,7.0,13.0,56,0.00,,---,0.00,VWS V14.01,2013-02-07 23:00:00,
2013-02-07 18:05:00,28.1,14.4,30.51,NNE,21,6.0,8.0,56,0.00,,---,0.00,VWS V14.01,2013-02-07 23:05:00,
2013-02-07 18:10:00,27.9,14.2,30.51,NE,49,10.0,10.0,56,0.00,,---,0.00,VWS V14.01,2013-02-07 23:10:00,
2013-02-07 18:15:00,28.0,14.3,30.51,ENE,65,7.0,10.0,56,0.00,,---,0.00,VWS V14.01,2013-02-07 23:15:00,
2013-02-07 18:20:00,27.9,14.6,30.51,NE,40,6.0,10.0,57,0.00,,---,0.00,VWS V14.01,2013-02-07 23:20:00,
2013-02-07 18:25:00,27.9,15.1,30.51,NE,50,0.0,12.0,58,0.00,,---,0.00,VWS V14.01,2013-02-07 23:25:00,
2013-02-07 18:30:00,27.9,15.8,30.51,NE,34,4.0,12.0,60,0.00,,---,0.00,VWS V14.01,2013-02-07 23:30:00,
2013-02-07 18:35:00,27.7,16.4,30.51,NE,38,5.0,10.0,62,0.00,,---,0.00,VWS V14.01,2013-02-07 23:35:00,
2013-02-07 18:40:00,27.6,16.3,30.52,NE,47,8.0,10.0,62,0.00,,---,0.00,VWS V14.01,2013-02-07 23:40:00,
2013-02-07 18:45:00,27.6,16.7,30.52,East,79,5.0,10.0,63,0.00,,---,0.00,VWS V14.01,2013-02-07 23:45:00,
2013-02-07 18:50:00,27.5,16.9,30.52,NE,48,4.0,10.0,64,0.00,,---,0.00,VWS V14.01,2013-02-07 23:50:00,
2013-02-07 18:55:00,27.5,16.6,30.52,NE,53,6.0,11.0,63,0.00,,---,0.00,VWS V14.01,2013-02-07 23:55:00,
2013-02-07 19:00:00,27.6,16.7,30.52,ENE,72,10.0,11.0,63,0.00,,---,0.00,VWS V14.01,2013-02-08 00:00:00,
2013-02-07 19:05:00,27.6,17.0,30.52,ENE,65,2.0,10.0,64,0.00,,---,0.00,VWS V14.01,2013-02-08 00:05:00,
2013-02-07 19:10:00,27.7,17.5,30.52,ENE,67,4.0,10.0,65,0.00,,---,0.00,VWS V14.01,2013-02-08 00:10:00,
2013-02-07 19:15:00,27.6,17.4,30.52,ENE,62,2.0,11.0,65,0.00,,---,0.00,VWS V14.01,2013-02-08 00:15:00,
2013-02-07 19:20:00,27.6,17.7,30.52,NE,51,9.0,13.0,66,0.00,,---,0.00,VWS V14.01,2013-02-08 00:20:00,
2013-02-07 19:25:00,27.6,17.7,30.52,East,82,3.0,13.0,66,0.00,,---,0.00,VWS V14.01,2013-02-08 00:25:00,
2013-02-07 19:30:00,27.6,18.1,30.51,NE,49,7.0,13.0,67,0.00,,---,0.00,VWS V14.01,2013-02-08 00:30:00,
2013-02-07 19:35:00,27.6,17.7,30.52,NNE,24,7.0,8.0,66,0.00,,---,0.00,VWS V14.01,2013-02-08 00:35:00,
2013-02-07 19:40:00,27.6,17.7,30.52,NE,34,5.0,11.0,66,0.00,,---,0.00,VWS V14.01,2013-02-08 00:40:00,
2013-02-07 19:45:00,27.6,17.7,30.52,NNE,25,4.0,11.0,66,0.00,,---,0.00,VWS V14.01,2013-02-08 00:45:00,
2013-02-07 19:50:00,27.6,18.1,30.51,NNE,29,2.0,12.0,67,0.00,,---,0.00,VWS V14.01,2013-02-08 00:50:00,
2013-02-07 19:55:00,27.6,18.1,30.52,NE,49,5.0,12.0,67,0.00,,---,0.00,VWS V14.01,2013-02-08 00:55:00,
2013-02-07 20:00:00,27.6,18.1,30.51,NE,50,5.0,12.0,67,0.00,,---,0.00,VWS V14.01,2013-02-08 01:00:00,
2013-02-07 20:05:00,27.7,18.5,30.51,NNE,21,5.0,10.0,68,0.00,,---,0.00,VWS V14.01,2013-02-08 01:05:00,
2013-02-07 20:10:00,27.8,18.6,30.52,NE,53,13.0,13.0,68,0.00,,---,0.00,VWS V14.01,2013-02-08 01:10:00,
2013-02-07 20:15:00,27.9,18.7,30.52,NE,51,8.0,13.0,68,0.00,,---,0.00,VWS V14.01,2013-02-08 01:15:00,
2013-02-07 20:20:00,28.0,19.2,30.52,NE,54,6.0,13.0,69,0.00,,---,0.00,VWS V14.01,2013-02-08 01:20:00,
2013-02-07 20:25:00,28.1,19.6,30.51,NE,55,5.0,13.0,70,0.00,,---,0.00,VWS V14.01,2013-02-08 01:25:00,
2013-02-07 20:30:00,28.2,20.0,30.51,NNE,31,10.0,13.0,71,0.00,,---,0.00,VWS V14.01,2013-02-08 01:30:00,
2013-02-07 20:35:00,28.3,20.1,30.51,NNE,27,7.0,9.0,71,0.00,,---,0.00,VWS V14.01,2013-02-08 01:35:00,
2013-02-07 20:40:00,28.3,20.1,30.51,East,82,0.0,11.0,71,0.00,,---,0.00,VWS V14.01,2013-02-08 01:40:00,
2013-02-07 20:45:00,28.3,20.1,30.51,ENE,67,5.0,11.0,71,0.00,,---,0.00,VWS V14.01,2013-02-08 01:45:00,
2013-02-07 20:50:00,28.3,20.1,30.51,NE,46,8.0,11.0,71,0.00,,---,0.00,VWS V14.01,2013-02-08 01:50:00,
2013-02-07 20:55:00,28.3,20.4,30.51,North,1,5.0,11.0,72,0.00,,---,0.00,VWS V14.01,2013-02-08 01:55:00,
2013-02-07 21:00:00,28.3,20.4,30.51,NE,45,9.0,11.0,72,0.00,,---,0.00,VWS V14.01,2013-02-08 02:00:00,
2013-02-07 21:05:00,28.3,20.4,30.51,NE,55,10.0,10.0,72,0.00,,---,0.00,VWS V14.01,2013-02-08 02:05:00,
2013-02-07 21:10:00,28.3,20.8,30.50,NE,49,4.0,10.0,73,0.00,,---,0.00,VWS V14.01,2013-02-08 02:10:00,
2013-02-07 21:15:00,28.4,20.9,30.50,NE,38,0.0,10.0,73,0.00,,---,0.00,VWS V14.01,2013-02-08 02:15:00,
2013-02-07 21:20:00,28.3,20.8,30.50,ENE,77,2.0,12.0,73,0.00,,---,0.00,VWS V14.01,2013-02-08 02:20:00,
2013-02-07 21:25:00,28.3,20.8,30.50,NNE,12,3.0,12.0,73,0.00,,---,0.00,VWS V14.01,2013-02-08 02:25:00,
2013-02-07 21:30:00,28.3,21.1,30.50,NE,35,2.0,12.0,74,0.00,,---,0.00,VWS V14.01,2013-02-08 02:30:00,
2013-02-07 21:35:00,28.3,21.1,30.50,NE,55,7.0,10.0,74,0.00,,---,0.00,VWS V14.01,2013-02-08 02:35:00,
2013-02-07 21:40:00,28.3,21.1,30.49,ENE,74,7.0,10.0,74,0.00,,---,0.00,VWS V14.01,2013-02-08 02:40:00,
2013-02-07 21:45:00,28.3,21.4,30.49,NE,47,5.0,10.0,75,0.00,,---,0.00,VWS V14.01,2013-02-08 02:45:00,
2013-02-07 21:50:00,28.4,21.5,30.50,NNE,32,8.0,10.0,75,0.00,,---,0.00,VWS V14.01,2013-02-08 02:50:00,
2013-02-07 21:55:00,28.4,21.8,30.49,NE,34,5.0,10.0,76,0.00,,---,0.00,VWS V14.01,2013-02-08 02:55:00,
2013-02-07 22:00:00,28.4,21.8,30.49,NE,43,10.0,10.0,76,0.00,,---,0.00,VWS V14.01,2013-02-08 03:00:00,
2013-02-07 22:05:00,28.4,21.8,30.50,NE,47,0.0,9.0,76,0.00,,---,0.00,VWS V14.01,2013-02-08 03:05:00,
2013-02-07 22:10:00,28.4,22.1,30.50,NNE,21,4.0,9.0,77,0.00,,---,0.00,VWS V14.01,2013-02-08 03:10:00,
2013-02-07 22:15:00,28.3,22.0,30.51,North,7,5.0,9.0,77,0.00,,---,0.00,VWS V14.01,2013-02-08 03:15:00,
2013-02-07 22:20:00,28.3,22.0,30.51,NE,37,0.0,9.0,77,0.00,,---,0.00,VWS V14.01,2013-02-08 03:20:00,
2013-02-07 22:25:00,28.3,22.0,30.51,NNE,25,4.0,9.0,77,0.00,,---,0.00,VWS V14.01,2013-02-08 03:25:00,
2013-02-07 22:30:00,28.2,21.9,30.51,NNE,17,4.0,9.0,77,0.00,,---,0.00,VWS V14.01,2013-02-08 03:30:00,
2013-02-07 22:35:00,28.2,21.9,30.51,North,359,7.0,7.0,77,0.00,,---,0.00,VWS V14.01,2013-02-08 03:35:00,
2013-02-07 22:40:00,28.2,21.9,30.51,NNE,30,3.0,7.0,77,0.00,,---,0.00,VWS V14.01,2013-02-08 03:40:00,
2013-02-07 22:45:00,28.2,21.9,30.51,North,358,3.0,7.0,77,0.00,,---,0.00,VWS V14.01,2013-02-08 03:45:00,
2013-02-07 22:50:00,28.2,21.9,30.50,NNE,22,0.0,7.0,77,0.00,,---,0.00,VWS V14.01,2013-02-08 03:50:00,
2013-02-07 22:55:00,28.2,21.9,30.50,NE,35,3.0,7.0,77,0.00,,---,0.00,VWS V14.01,2013-02-08 03:55:00,
2013-02-07 23:00:00,28.2,22.2,30.51,NNE,31,2.0,7.0,78,0.00,,---,0.00,VWS V14.01,2013-02-08 04:00:00,
2013-02-07 23:05:00,28.2,22.2,30.50,NE,38,1.0,6.0,78,0.00,,---,0.00,VWS V14.01,2013-02-08 04:05:00,
2013-02-07 23:10:00,28.2,22.2,30.50,NNE,24,2.0,6.0,78,0.00,,---,0.00,VWS V14.01,2013-02-08 04:10:00,
2013-02-07 23:15:00,28.1,22.1,30.49,NNE,22,0.0,6.0,78,0.00,,---,0.00,VWS V14.01,2013-02-08 04:15:00,
2013-02-07 23:20:00,28.1,22.4,30.50,NE,35,5.0,6.0,79,0.00,,---,0.00,VWS V14.01,2013-02-08 04:20:00,
2013-02-07 23:25:00,28.1,22.4,30.49,NE,49,4.0,6.0,79,0.00,,---,0.00,VWS V14.01,2013-02-08 04:25:00,
2013-02-07 23:30:00,28.1,22.7,30.49,NE,43,0.0,6.0,80,0.00,,---,0.00,VWS V14.01,2013-02-08 04:30:00,
2013-02-07 23:35:00,28.2,23.1,30.49,NE,36,0.0,4.0,81,0.00,,---,0.00,VWS V14.01,2013-02-08 04:35:00,
2013-02-07 23:40:00,28.2,23.1,30.49,NNE,28,0.0,4.0,81,0.00,,---,0.00,VWS V14.01,2013-02-08 04:40:00,
2013-02-07 23:45:00,28.2,23.4,30.49,NNE,20,0.0,8.0,82,0.00,,---,0.00,VWS V14.01,2013-02-08 04:45:00,
2013-02-07 23:50:00,28.3,23.5,30.48,NNE,26,0.0,8.0,82,0.00,,---,0.00,VWS V14.01,2013-02-08 04:50:00,
2013-02-07 23:55:00,28.3,23.8,30.49,NE,43,0.0,8.0,83,0.00,,---,0.00,VWS V14.01,2013-02-08 04:55:00,